Home   Weather   Norwalk   Past weeks

Flag for USA Past Weather in Norwalk, California, USA — Yesterday and Last 2 Weeks

Now
53 °F

Light rain. Fog.


Feels Like: 52 °F
Forecast: 52 / 58 °F
Wind: 5 mph from Southeast

Location: Fullerton Municipal Airport

Current Time: Jan 20, 2017 at 8:14:55 am

Latest Report: Jan 20, 2017 at 6:53 am


Visibility: 4 mi

Pressure: 29.76 "Hg

Humidity: 96%

Dew Point: 52 °F

Location of NorwalkLocation

Past Weather in Norwalk — Graph

°F

Norwalk Temperature Yesterday

Maximum temperature yesterday: 64 °F (at 12:53 pm)
Minimum temperature yesterday: 53 °F (at 5:07 am)
Average temperature yesterday: 57 °F

High & Low Weather Summary for the Past Weeks

 TemperatureHumidityPressure
High77 °F (Jan 8, 1:53 pm)100% (Jan 5, 7:53 am)30.20 "Hg (Jan 5, 7:53 am)
Low44 °F (Jan 17, 4:53 am)29% (Jan 7, 2:53 pm)29.76 "Hg (Jan 20, 6:53 am)
Average57 °F82%30.04 "Hg
* Reported Jan 5 6:20 am — Jan 20 6:53 am, Norwalk, Weather by CustomWeather, © 2017

Note: Actual official high and low records may vary slightly from our data, if they occured in-between our weather recording intervals... More about our weather records

Advertising

Norwalk Weather History for the Previous 24 Hours

Scroll right to see more
 ConditionsComfort  
Time TempWeatherWind HumidityBarometerVisibility
6:53 am
Fri, Jan 20
53 °FLight rain. Fog.5 mph96%29.76 "Hg4 mi
5:53 am53 °FLight rain. Mostly cloudy.No wind89%29.78 "Hg10 mi
5:22 am53 °FLight rain. Fog.6 mph93%29.80 "Hg3 mi
4:53 am54 °FLight rain. Overcast.3 mph93%29.78 "Hg10 mi
3:53 am54 °FLight rain. Fog.3 mph97%29.79 "Hg6 mi
2:53 am54 °FMostly cloudy.No wind97%29.81 "Hg10 mi
1:53 am54 °FPartly cloudy.No wind97%29.85 "Hg9 mi
12:53 am54 °FPassing clouds.No wind97%29.85 "Hg10 mi
12:25 am54 °FMostly cloudy.No wind97%29.86 "Hg10 mi
11:53 pm
Thu, Jan 19
54 °FMostly cloudy.3 mph97%29.85 "Hg10 mi
11:25 pm54 °FPartly cloudy.No wind93%29.87 "Hg10 mi
11:16 pm54 °FOvercast.No wind93%29.88 "Hg10 mi
10:53 pm54 °FRain. Fog.No wind93%29.89 "Hg4 mi
10:34 pm55 °FMostly cloudy.No wind90%29.90 "Hg10 mi
9:53 pm55 °FLight rain. Overcast.8 mph90%29.90 "Hg7 mi
8:53 pm57 °FMostly cloudy.No wind81%29.90 "Hg10 mi
8:37 pm57 °FOvercast.No wind81%29.90 "Hg10 mi
7:53 pm57 °FLight rain. Mostly cloudy.3 mph81%29.91 "Hg10 mi
6:53 pm57 °FMostly cloudy.5 mph83%29.91 "Hg10 mi
6:17 pm57 °FOvercast.6 mph81%29.91 "Hg10 mi
5:53 pm58 °FMostly cloudy.5 mph78%29.91 "Hg10 mi
5:30 pm58 °FMostly cloudy.3 mph78%29.91 "Hg10 mi
4:53 pm59 °FMore clouds than sun.9 mph75%29.89 "Hg10 mi
3:53 pm60 °FMore clouds than sun.13 mph72%29.88 "Hg10 mi
2:53 pm63 °FSunny.12 mph52%29.88 "Hg10 mi
1:53 pm64 °FPartly sunny.9 mph56%29.89 "Hg10 mi
12:53 pm64 °FPartly sunny.8 mph58%29.90 "Hg10 mi
11:53 am62 °FBroken clouds.5 mph73%29.92 "Hg10 mi
10:53 am62 °FBroken clouds.6 mph73%29.94 "Hg10 mi
10:24 am60 °FScattered clouds.No wind80%29.96 "Hg10 mi
9:53 am59 °FMostly cloudy.3 mph84%29.97 "Hg10 mi
8:53 am58 °FPartly sunny.6 mph93%29.94 "Hg10 mi
8:20 am57 °FMostly cloudy.No wind96%29.93 "Hg10 mi
Weather by CustomWeather, © 2017

See weather overviewHow to use our weather pages